FENGYUN 1C DEB

Satellite information

Favourite Embed

Satellite Type and Status

DEBRISIN ORBIT

Key statistics

Satellite FENGYUN 1C DEB at a glance.

Uptime

9670

Days in orbit

Revolutions

≈ 14.8

Per day

Orbit

SSO

Sun Synchronous Orbit

Inclination

99.0

Latest

Satellite identification and parameters

Extended collection of information and parameters for FENGYUN 1C DEB.

Object identification

Identified? True

Debris? True

Object name: FENGYUN 1C DEB

International designator: 1999-025DZG

Object number (NORAD): 36686

Object ID (CCSDS): 36686

Country: PEOPLES REPUBLIC OF CHINA (PRC)

Current information (Y/N): Y

RCS size: SMALL

Orbital parameters

Period: 97.549 minutes

Inclination: 99.0051 deg

SMA: 7019.529 km

Apoapsis: 715.723 km

Periapsis: 567.065 km

RAAN: 126.3417 deg

Eccentricy: 0.0105889

Argument of periapsis: 198.6229 deg

Mean anomaly: 161.1091 deg

Mean motion: 14.76185081 rev/day

Mean motion (dot): 0.00011039 rev/day2

B* drag term: 0.0014632 1/REarth

Two-line elements (TLE)

Creation date: Oct. 27, 2025, 2:36 p.m.

Reference frame: TEME

Reference center: EARTH

Epoch: Oct. 27, 2025, 6:31 a.m. UTC

TLE line 0: 0 FENGYUN 1C DEB

TLE line 1: 1 36686U 99025DZG 25300.27195294 .00011039 00000-0 14632-2 0 9995

TLE line 2: 2 36686 99.0051 126.3417 0105889 198.6229 161.1091 14.76185081651661

Live tracking on map

Real-time ground track for satellite FENGYUN 1C DEB.

In-orbit conjunctions

A list of the most updated potential collisions computed for object FENGYUN 1C DEB.

Target Orbit TCA Probability of collision Miss distance Type
CZ-6A DEB SSO 2025-06-25 15:52:16 0.0001753909 326.0 (m) DEBRIS
CZ-6A DEB LEO 2025-01-01 16:09:24 0.0003757952 687.0 (m) DEBRIS

Associated space launch

Chinese polar orbiting meteorological satellite

FENGYUN 1C DEB was lifted into orbit during the mission ‘Long March 4B | Feng Yun 1C’, on board a Long March 4B space rocket.

The launch took place on May 10, 1999, 1:33 a.m. from Launch Complex 7.

For more information about the launch, click the button.

Launch to space Long March 4B | Feng Yun 1C
Long March 4B | Feng Yun 1C

Agency: N/A

Status: Launch Successful

Launch date: May 10, 1999, 1:33 a.m. UTC

Rocket: Long March 4B

Launch pad: Launch Complex 7

Location: Taiyuan Satellite Launch Center, People's Republic of China

...

Latest news about this satellite

There are no fresh news available about this satellite. Check back as we update our databases every day.


Newsletter sign-up

Weekly statistics, charts and insights to help you stay on top of the space industry.